Boone, IA

4:07 PM CDT on July 27, 2017 (GMT -0500)
Boone Municipal

Weather History for KBNW - December, 2012

Change the Weather History Date:

Saturday, December 8, 2012

  Actual Average Record
Temperature  
Mean Temperature 32 °F -  
Max Temperature 40 °F 33 °F 59 °F (1984)
Min Temperature 25 °F 14 °F -14 °F (1976)
Degree Days  
Heating Degree Days 32    
Moisture  
Dew Point 27 °F    
Average Humidity 73    
Maximum Humidity 90    
Minimum Humidity 62    
Precipitation  
Precipitation 0.03 in - - ()
Sea Level Pressure  
Sea Level Pressure 29.98 in    
Wind  
Wind Speed 7 mph (East)    
Max Wind Speed 13 mph    
Max Gust Speed -    
Visibility 9 miles    
Events Snow    
Averages and records for this station are not official NWS values.
T = Trace of Precipitation, MM = Missing Value Source: NWS Daily Summary

Daily Weather History Graph

Daily Weather History Graph

Search for Another Location

Airport or City:

Trip Planner

Search our weather history database for the weather conditions in past years. The results will help you decide how hot, cold, wet, or windy it might be!

Date:

Astronomy

Dec. 08, 2012 Rise Set
Actual Time 7:31 AM CST 4:43 PM CST
Civil Twilight 6:59 AM CST 5:15 PM CST
Nautical Twilight 6:24 AM CST 5:50 PM CST
Astronomical Twilight 5:50 AM CST 6:24 PM CST
Moon 1:52 AM CST (12/8) 1:17 PM CST (12/8)
Length of Visible Light 10h 15m
Length of Day
9h 12m
Waning Crescent, 28% of the Moon is Illuminated
Dec 8
Waning Crescent
Dec 13
New
Dec 19
First Quarter
Dec 28
Full
Jan 4
Last Quarter

Hourly Weather History & Observations

Time (CST) Temp. Windchill Dew Point Humidity Pressure Visibility Wind Dir Wind Speed Gust Speed Precip Events Conditions
12:15 AM 35.6 °F 29.9 °F 25.9 °F 68% 29.98 in 10.0 mi North 6.9 mph - N/A   Overcast
12:35 AM 35.1 °F 28.6 °F 25.5 °F 68% 29.97 in 10.0 mi NNE 8.1 mph - N/A   Overcast
12:55 AM 34.9 °F 28.3 °F 25.2 °F 68% 29.97 in 10.0 mi NNE 8.1 mph - N/A   Overcast
1:15 AM 34.7 °F 28.8 °F 25.0 °F 68% 29.96 in 10.0 mi NNE 6.9 mph - N/A   Overcast
1:35 AM 34.5 °F 28.6 °F 24.8 °F 68% 29.96 in 10.0 mi NNE 6.9 mph - N/A   Overcast
1:55 AM 34.7 °F 28.8 °F 24.3 °F 66% 29.97 in 10.0 mi North 6.9 mph - N/A   Overcast
2:15 AM 34.0 °F 28.0 °F 24.3 °F 68% 29.97 in 10.0 mi North 6.9 mph - N/A   Overcast
2:35 AM 34.0 °F 28.8 °F 23.9 °F 67% 29.98 in 10.0 mi North 5.8 mph - N/A   Overcast
2:55 AM 32.9 °F 26.7 °F 23.9 °F 69% 29.98 in 10.0 mi North 6.9 mph - N/A   Mostly Cloudy
3:15 AM 32.9 °F 27.5 °F 23.9 °F 69% 29.97 in 10.0 mi North 5.8 mph - N/A   Mostly Cloudy
3:35 AM 33.3 °F 28.9 °F 24.6 °F 71% 29.97 in 10.0 mi North 4.6 mph - N/A   Overcast
3:55 AM 32.7 °F 27.3 °F 24.4 °F 72% 29.97 in 10.0 mi North 5.8 mph - N/A   Overcast
4:15 AM 33.4 °F - 24.6 °F 70% 29.98 in 10.0 mi Calm Calm - N/A   Overcast
4:35 AM 32.4 °F 26.9 °F 24.3 °F 72% 29.98 in 10.0 mi North 5.8 mph - N/A   Mostly Cloudy
4:55 AM 30.9 °F 25.2 °F 23.5 °F 74% 29.98 in 10.0 mi North 5.8 mph - N/A   Scattered Clouds
5:15 AM 29.8 °F 23.0 °F 22.6 °F 75% 29.98 in 10.0 mi North 6.9 mph - N/A   Clear
5:35 AM 29.1 °F 24.1 °F 22.5 °F 76% 29.99 in 10.0 mi North 4.6 mph - N/A   Clear
5:55 AM 29.1 °F 24.1 °F 22.6 °F 77% 29.99 in 10.0 mi North 4.6 mph - N/A   Clear
6:15 AM 27.5 °F 22.2 °F 21.7 °F 79% 30.00 in 10.0 mi NNE 4.6 mph - N/A   Clear
6:35 AM 26.2 °F 18.6 °F 20.8 °F 80% 30.00 in 10.0 mi NNE 6.9 mph - N/A   Clear
6:55 AM 26.6 °F 21.2 °F 21.4 °F 81% 30.01 in 10.0 mi NE 4.6 mph - N/A   Clear
7:15 AM 25.2 °F 18.3 °F 19.9 °F 81% 30.01 in 10.0 mi NNE 5.8 mph - N/A   Clear
7:35 AM 26.6 °F 21.2 °F 21.6 °F 81% 30.01 in 10.0 mi ENE 4.6 mph - N/A   Clear
7:55 AM 26.6 °F 21.2 °F 21.7 °F 82% 30.01 in 10.0 mi NE 4.6 mph - N/A   Clear
8:15 AM 28.2 °F 22.0 °F 23.0 °F 81% 30.01 in 10.0 mi NE 5.8 mph - N/A   Clear
8:55 AM 32.0 °F 27.5 °F 25.2 °F 76% 30.02 in 10.0 mi ENE 4.6 mph - N/A   Clear
9:15 AM 33.3 °F 26.4 °F 25.5 °F 73% 30.02 in 10.0 mi East 8.1 mph - N/A   Clear
9:55 AM 34.3 °F 27.0 °F 25.0 °F 69% 30.03 in 10.0 mi East 9.2 mph - N/A   Clear
10:15 AM 35.2 °F 28.8 °F 25.3 °F 67% 30.03 in 10.0 mi ENE 8.1 mph - N/A   Clear
10:35 AM 35.6 °F 29.2 °F 25.3 °F 66% 30.03 in 10.0 mi East 8.1 mph - N/A   Clear
10:55 AM 36.1 °F 30.6 °F 25.5 °F 65% 30.02 in 10.0 mi East 6.9 mph - N/A   Clear
11:15 AM 36.7 °F 32.0 °F 25.7 °F 64% 30.01 in 10.0 mi East 5.8 mph - N/A   Clear
11:35 AM 37.4 °F 32.8 °F 26.6 °F 65% 30.01 in 10.0 mi ESE 5.8 mph - N/A   Clear
11:55 AM 37.8 °F 34.2 °F 26.6 °F 64% 30.01 in 10.0 mi ESE 4.6 mph - N/A   Clear
12:15 PM 38.3 °F 33.9 °F 27.3 °F 65% 30.00 in 10.0 mi ESE 5.8 mph - N/A   Clear
12:35 PM 38.3 °F 33.9 °F 27.5 °F 65% 29.99 in 10.0 mi East 5.8 mph - N/A   Clear
12:55 PM 38.7 °F 34.3 °F 27.7 °F 65% 29.98 in 10.0 mi ESE 5.8 mph - N/A   Clear
1:15 PM 38.8 °F 33.2 °F 27.5 °F 64% 29.98 in 10.0 mi ESE 8.1 mph - N/A   Clear
1:35 PM 39.2 °F 33.0 °F 27.5 °F 63% 29.98 in 10.0 mi SE 9.2 mph - N/A   Clear
1:55 PM 39.4 °F 34.5 °F 27.9 °F 63% 29.98 in 10.0 mi SE 6.9 mph - N/A   Clear
2:15 PM 39.7 °F 33.2 °F 28.0 °F 63% 29.96 in 10.0 mi ESE 10.4 mph - N/A   Clear
2:55 PM 40.1 °F 34.7 °F 28.0 °F 62% 29.96 in 10.0 mi ESE 8.1 mph - N/A   Clear
3:15 PM 40.1 °F 33.6 °F 28.2 °F 63% 29.96 in 10.0 mi ESE 10.4 mph - N/A   Clear
3:55 PM 39.7 °F 33.7 °F 28.8 °F 65% 29.96 in 10.0 mi ESE 9.2 mph - N/A   Clear
4:15 PM 39.6 °F 33.5 °F 29.1 °F 66% 29.95 in 10.0 mi SE 9.2 mph - N/A   Clear
4:35 PM 39.2 °F 33.0 °F 29.3 °F 68% 29.95 in 10.0 mi ESE 9.2 mph - N/A   Clear
4:55 PM 38.3 °F 32.5 °F 29.3 °F 70% 29.94 in 10.0 mi ESE 8.1 mph - N/A   Clear
5:15 PM 37.9 °F 32.1 °F 29.3 °F 71% 29.95 in 10.0 mi ESE 8.1 mph - N/A   Clear
5:35 PM 37.8 °F 31.8 °F 29.3 °F 72% 29.96 in 10.0 mi SE 8.1 mph - N/A   Clear
5:55 PM 37.9 °F 31.5 °F 29.7 °F 72% 29.96 in 10.0 mi SE 9.2 mph - N/A   Clear
6:15 PM 38.3 °F 31.4 °F 30.2 °F 73% 29.96 in 10.0 mi SE 10.4 mph - N/A   Clear
6:35 PM 38.3 °F 31.9 °F 30.7 °F 74% 29.96 in 10.0 mi SE 9.2 mph - N/A   Clear
6:55 PM 38.3 °F 31.4 °F 31.1 °F 75% 29.96 in 10.0 mi SE 10.4 mph - N/A   Scattered Clouds
7:15 PM 37.9 °F 32.1 °F 31.5 °F 77% 29.96 in 10.0 mi ESE 8.1 mph - N/A   Scattered Clouds
7:35 PM 37.9 °F 32.7 °F 31.6 °F 78% 29.97 in 10.0 mi SSE 6.9 mph - N/A   Mostly Cloudy
7:55 PM 38.3 °F 32.5 °F 32.0 °F 78% 29.97 in 7.0 mi SSE 8.1 mph - N/A   Unknown
8:15 PM 36.5 °F 31.0 °F 32.7 °F 86% 29.97 in 1.5 mi SSE 6.9 mph - N/A Snow Light Snow
8:35 PM 36.1 °F 31.4 °F 32.9 °F 88% 29.96 in 1.5 mi ESE 5.8 mph - 0.01 in Snow Light Snow
8:55 PM 36.0 °F 30.3 °F 33.1 °F 89% 29.96 in 1.0 mi SE 6.9 mph - 0.02 in Snow Light Snow
9:15 PM 36.0 °F 30.3 °F 33.1 °F 89% 29.97 in 1.2 mi SE 6.9 mph - N/A Snow Light Snow
9:55 PM 36.1 °F 28.7 °F 33.4 °F 90% 29.95 in 2.5 mi ESE 10.4 mph - 0.01 in   Overcast
10:15 PM 36.1 °F 29.3 °F 33.4 °F 90% 29.95 in 2.5 mi ESE 9.2 mph - N/A   Overcast
10:55 PM 35.8 °F 27.8 °F 33.1 °F 90% 29.93 in 2.5 mi ESE 11.5 mph - N/A   Overcast
11:15 PM 35.8 °F 27.8 °F 33.1 °F 90% 29.94 in 3.0 mi ESE 11.5 mph - N/A   Overcast
11:35 PM 36.3 °F 28.0 °F 33.4 °F 89% 29.94 in 4.0 mi SE 12.7 mph - N/A   Overcast
11:55 PM 36.5 °F 29.2 °F 33.8 °F 90% 29.94 in 5.0 mi ESE 10.4 mph - N/A   Overcast